sat.trackr.live / text

‹ back to catalog

STARLINK-35318

NORAD 66146 · 2025-240A

PAYLOAD ACTIVE UNKNOWN

§ Identity

Operator
Country
US
Launch date
2025-10-25
Launch site
AFETR
Launch vehicle
Mass (kg)
RCS (m²)

Purposes: comms

External: N2YO · Heavens-Above · Gunter

§ Orbital elements

Epoch: 2026-05-25T01:57:32.398272Z

Period
93.85 min
Inclination
53.1576°
Eccentricity
0.0000931
Mean motion
15.34397198 rev/d
Perigee alt
462.1 km
Apogee alt
463.3 km
Semi-major
6,840.8 km
B*
4.4886e-4
RAAN
67.3306°
Arg perigee
81.1561°
Mean anomaly
278.9547°
Rev number
3,374

§ Raw data

STARLINK-353181 66146U 25240A   26145.08162498  .00014818  00000+0  44886-3 0  99962 66146  53.1576  67.3306 0000931  81.1561 278.9547 15.34397198 33741

JSON: /api/v1/satellites/66146 · /tle

For live sub-satellite position, see the globe view (requires WebGL).

§ Visibility from observer

Set your observer location to see the next 7 days of passes ≥ 10°. The values pass through the URL so the page stays shareable.

No JS? Fill the form by hand. The geolocation button needs JavaScript.